Weather in Timiryazevo

Kazakhstan     53°44′53″N   66°29′31″E
temp.,
°C
wind,
m/s
gust,
m/s
humid.,
%
clouds,
%
prec.,
mm/h
press.,
hPa
HPBL,
m
2 march, tue
tue200:00−21w22999 0.0 101820
03:00−18sw239693 0.0 101862
06:00−18wsw239795 0.1 101859
09:00−18sw349790 0.1 101697
12:00−15sw359483 0.1 1016254
15:00−13ssw469397 0.0 1014328
18:00−14ssw489497 0.1 1014245
21:00−15ssw5129589 0.0 1013289
3 march, wed
wed300:00−16ssw6139393 0.0 1013334
03:00−18ssw7139384 0.0 1012313
06:00−17ssw7149392 0.0 1011407
09:00−14ssw81491100 0.1 1010517
12:00−11ssw91590100 0.1 1009590
15:00−8ssw91589100 0.1 1009726
18:00−5ssw91687100 0.1 1008808
21:00−4ssw81593100 0.1 1007757
4 march, thu
thu400:00−3ssw81593100 0.4 1006695
03:00−3ssw81593100 0.3 1004676
06:00−2ssw81595100 0.9 1002800
09:00−1sw81495100 0.8 1000757
12:00−1sw91394100 1.0 1000880
15:00−1sw91395100 0.6 1000948
18:00−2w71192100 1.2 1002761
21:00−7wsw71392100 0.2 1004451
5 march, fri
fri500:00−11wsw5128978 0.3 1008223
03:00−12sw613910 0.0 1009290
06:00−12sw7159123 0.0 1010355
09:00−10sw9179194 0.1 1010614
12:00−6sw12198897 0.3 10091004
15:00−2sw132091100 0.4 10081144
18:00−2sw122088100 0.7 10081192
21:00−2sw122091100 0.6 10081149
6 march, sat
sat600:00−2sw111894100 1.1 10081029
03:00−1sw101796100 1.3 1006991
06:00−1wsw101695100 2.8 1007964
09:00−3wnw5992100 0.4 1009431
12:00−5w488978 0.4 1011388
15:00−5wsw48871 0.0 1013480
18:00−8wsw348938 0.0 101349
21:00−10ssw2388100 0.0 101321